| time (UTC) | temp F | wind direction | speed knots | gust knots | rain 1hr in | rain 24hr in | rain mn in | humidity % | barometer mb |
| 20260904232005 | 78 | 175 | 4.3 | 13.0 | 0.00 | 0.00 | 0.00 | 74 | 1018.2 |
| 20260904231004 | 78 | 183 | 4.3 | 13.9 | 0.00 | 0.00 | 0.00 | 74 | 1018.2 |
| 20260904230008 | 78 | 136 | 4.3 | 14.8 | 0.00 | 0.00 | 0.00 | 72 | 1018.5 |
| 20260904225004 | 79 | 149 | 7.8 | 14.8 | 0.00 | 0.00 | 0.00 | 72 | 1018.2 |
| 20260904224004 | 79 | 165 | 7.0 | 15.6 | 0.00 | 0.00 | 0.00 | 70 | 1018.1 |
| 20260904223004 | 79 | 173 | 5.2 | 13.9 | 0.00 | 0.00 | 0.00 | 70 | 1018.1 |
| 20260904222004 | 80 | 168 | 5.2 | 13.0 | 0.00 | 0.00 | 0.00 | 66 | 1018.3 |
| 20260904221005 | 80 | 202 | 2.6 | 13.0 | 0.00 | 0.00 | 0.00 | 66 | 1018.0 |
| 20260904220005 | 80 | 315 | 1.7 | 12.2 | 0.00 | 0.00 | 0.00 | 66 | 1018.1 |
| 20260904215004 | 80 | 177 | 4.3 | 12.2 | 0.00 | 0.00 | 0.00 | 62 | 1018.2 |
| 20260904214004 | 79 | 178 | 4.3 | 13.9 | 0.00 | 0.00 | 0.00 | 66 | 1018.2 |
| 20260904213004 | 79 | 144 | 5.2 | 12.2 | 0.00 | 0.00 | 0.00 | 65 | 1018.3 |
| 20260904212005 | 80 | 221 | 4.3 | 7.8 | 0.00 | 0.00 | 0.00 | 62 | 1018.3 |
| 20260904211005 | 80 | 184 | 4.3 | 7.8 | 0.00 | 0.00 | 0.00 | 62 | 1018.5 |
| 20260904210004 | 81 | 220 | 1.7 | 8.7 | 0.00 | 0.00 | 0.00 | 60 | 1018.6 |
| 20260904205005 | 80 | 179 | 4.3 | 13.0 | 0.00 | 0.00 | 0.00 | 59 | 1018.8 |
| 20260904204005 | 80 | 147 | 4.3 | 10.4 | 0.00 | 0.00 | 0.00 | 60 | 1019.0 |
| 20260904203004 | 82 | 167 | 2.6 | 10.4 | 0.00 | 0.00 | 0.00 | 56 | 1019.1 |
| 20260904202004 | 81 | 177 | 3.5 | 12.2 | 0.00 | 0.00 | 0.00 | 54 | 1019.2 |
| 20260904200004 | 80 | 87 | 2.6 | 11.3 | 0.00 | 0.00 | 0.00 | 53 | 1019.4 |
| 20260904195004 | 82 | 166 | 6.1 | 10.4 | 0.00 | 0.00 | 0.00 | 53 | 1019.6 |
| 20260904193007 | 80 | 155 | 5.2 | 7.0 | 0.00 | 0.00 | 0.00 | 59 | 1019.8 |
| 20260904192005 | 81 | 193 | 2.6 | 7.0 | 0.00 | 0.00 | 0.00 | 58 | 1019.8 |
| 20260904190005 | 78 | 125 | 4.3 | 6.1 | 0.00 | 0.00 | 0.00 | 64 | 1020.1 |
| 20260904185003 | 78 | 15 | 0.9 | 7.0 | 0.00 | 0.00 | 0.00 | 63 | 1020.3 |
| 20260904184003 | 79 | 246 | 4.3 | 7.0 | 0.00 | 0.00 | 0.00 | 64 | 1020.5 |
| 20260904183015 | 77 | 166 | 0.9 | 6.1 | 0.00 | 0.00 | 0.00 | 65 | 1020.6 |
| 20260904182012 | 77 | 306 | 0.9 | 4.3 | 0.00 | 0.00 | 0.00 | 64 | 1020.9 |
| 20260904181006 | 75 | 355 | 1.7 | 7.8 | 0.00 | 0.00 | 0.00 | 68 | 1021.0 |
| 20260904180003 | 76 | 213 | 0.9 | 4.3 | 0.00 | 0.00 | 0.00 | 68 | 1021.1 |
| 20260904175003 | 75 | 211 | 1.7 | 5.2 | 0.00 | 0.00 | 0.00 | 66 | 1021.0 |
| 20260904174002 | 74 | 142 | 0.9 | 6.1 | 0.00 | 0.00 | 0.00 | 69 | 1021.3 |
| 20260904173004 | 74 | 342 | 1.7 | 4.3 | 0.00 | 0.00 | 0.00 | 71 | 1021.5 |
| 20260904172002 | 73 | 305 | 0.9 | 5.2 | 0.00 | 0.00 | 0.00 | 71 | 1021.5 |
| 20260904171003 | 72 | 227 | 1.7 | 6.1 | 0.00 | 0.00 | 0.00 | 71 | 1021.5 |
| 20260904170003 | 72 | 347 | 4.3 | 7.8 | 0.00 | 0.00 | 0.00 | 74 | 1021.5 |
| 20260904165008 | 70 | 314 | 1.7 | 7.0 | 0.00 | 0.00 | 0.00 | 74 | 1021.5 |
| 20260904164016 | 71 | 299 | 2.6 | 7.0 | 0.00 | 0.00 | 0.00 | 75 | 1021.5 |
| 20260904163008 | 70 | 248 | 2.6 | 7.0 | 0.00 | 0.00 | 0.00 | 77 | 1021.5 |
| 20260904162010 | 70 | 94 | 2.6 | 7.0 | 0.00 | 0.00 | 0.00 | 79 | 1021.7 |
| 20260904161004 | 70 | 52 | 1.7 | 5.2 | 0.00 | 0.00 | 0.00 | 77 | 1021.7 |
| 20260904160002 | 68 | 61 | 2.6 | 5.2 | 0.00 | 0.00 | 0.00 | 79 | 1021.7 |
| 20260904154003 | 68 | 84 | 2.6 | 7.0 | 0.00 | 0.00 | 0.00 | 81 | 1021.6 |
| 20260904153002 | 68 | 53 | 3.5 | 12.2 | 0.00 | 0.00 | 0.00 | 82 | 1021.6 |
| 20260904152003 | 67 | 62 | 3.5 | 12.2 | 0.00 | 0.00 | 0.00 | 84 | 1021.6 |
| 20260904151003 | 66 | 77 | 2.6 | 7.0 | 0.00 | 0.00 | 0.00 | 86 | 1021.5 |
| 20260904150003 | 67 | 36 | 0.9 | 7.0 | 0.00 | 0.00 | 0.00 | 87 | 1021.6 |
| 20260904145003 | 66 | 78 | 1.7 | 5.2 | 0.00 | 0.00 | 0.00 | 88 | 1021.5 |
| 20260904144008 | 66 | 121 | 2.6 | 6.1 | 0.00 | 0.00 | 0.00 | 89 | 1021.5 |
| 20260904143004 | 65 | 70 | 1.7 | 7.8 | 0.00 | 0.00 | 0.00 | 90 | 1021.4 |
| 20260904142003 | 65 | 63 | 2.6 | 6.1 | 0.00 | 0.00 | 0.00 | 91 | 1021.4 |
| 20260904141003 | 65 | 40 | 4.3 | 6.1 | 0.00 | 0.00 | 0.00 | 91 | 1021.3 |
| 20260904140003 | 65 | 52 | 0.9 | 5.2 | 0.00 | 0.00 | 0.00 | 91 | 1021.2 |
| 20260904133004 | 65 | 6 | 1.7 | 6.1 | 0.00 | 0.00 | 0.00 | 91 | 1021.1 |
| 20260904132002 | 65 | 24 | 4.3 | 6.1 | 0.00 | 0.00 | 0.00 | 91 | 1021.1 |
| 20260904131006 | 65 | 2 | 0.9 | 4.3 | 0.00 | 0.00 | 0.00 | 90 | 1020.9 |
| 20260904130004 | 64 | 348 | 1.7 | 2.6 | 0.00 | 0.00 | 0.00 | 90 | 1020.8 |
| 20260904125004 | 65 | 5 | 0.9 | 2.6 | 0.00 | 0.00 | 0.00 | 90 | 1020.6 |
| 20260904124005 | 64 | 8 | 0.9 | 2.6 | 0.00 | 0.00 | 0.00 | 91 | 1020.8 |
| 20260904123005 | 64 | 344 | 1.7 | 4.3 | 0.00 | 0.00 | 0.00 | 91 | 1020.9 |
| 20260904122004 | 64 | 111 | 1.7 | 4.3 | 0.00 | 0.00 | 0.00 | 91 | 1020.6 |
| 20260904120004 | 64 | 17 | 2.6 | 4.3 | 0.00 | 0.00 | 0.00 | 92 | 1020.6 |
| 20260904115003 | 64 | 41 | 1.7 | 4.3 | 0.00 | 0.00 | 0.00 | 92 | 1020.5 |
| 20260904114009 | 64 | 28 | 0.9 | 4.3 | 0.00 | 0.00 | 0.00 | 92 | 1020.5 |
| 20260904111003 | 65 | 13 | 0.9 | 4.3 | 0.00 | 0.00 | 0.00 | 92 | 1020.1 |
| 20260904110003 | 65 | 98 | 1.7 | 6.1 | 0.00 | 0.00 | 0.00 | 93 | 1020.1 |
| 20260904105003 | 65 | 69 | 0.9 | 4.3 | 0.00 | 0.00 | 0.00 | 93 | 1020.2 |
| 20260904103008 | 65 | 51 | 1.7 | 4.3 | 0.00 | 0.00 | 0.00 | 93 | 1020.2 |
| 20260904100003 | 65 | 100 | 0.9 | 5.2 | 0.00 | 0.00 | 0.00 | 93 | 1020.1 |
| 20260904095002 | 65 | 113 | 1.7 | 6.1 | 0.00 | 0.00 | 0.00 | 93 | 1020.2 |
| 20260904094004 | 65 | 11 | 1.7 | 4.3 | 0.00 | 0.00 | 0.00 | 93 | 1020.2 |
| 20260904093002 | 65 | 90 | 1.7 | 5.2 | 0.00 | 0.00 | 0.00 | 93 | 1020.3 |
| 20260904092003 | 65 | 31 | 0.9 | 4.3 | 0.00 | 0.00 | 0.00 | 93 | 1020.2 |
| 20260904091002 | 65 | 128 | 1.7 | 4.3 | 0.00 | 0.00 | 0.00 | 93 | 1020.4 |
| 20260904090003 | 65 | 52 | 2.6 | 4.3 | 0.00 | 0.00 | 0.00 | 93 | 1020.3 |
| 20260904085003 | 65 | 36 | 1.7 | 4.3 | 0.00 | 0.00 | 0.00 | 93 | 1020.3 |
| 20260904084003 | 64 | 32 | 0.9 | 4.3 | 0.00 | 0.00 | 0.00 | 93 | 1020.5 |
| 20260904083004 | 64 | 50 | 1.7 | 4.3 | 0.00 | 0.00 | 0.00 | 93 | 1020.5 |
| 20260904082002 | 64 | 80 | 2.6 | 4.3 | 0.00 | 0.00 | 0.00 | 92 | 1020.6 |
| 20260904081003 | 64 | 9 | 1.7 | 2.6 | 0.00 | 0.00 | 0.00 | 92 | 1020.7 |
| 20260904080003 | 65 | 82 | 0.9 | 2.6 | 0.00 | 0.00 | 0.00 | 92 | 1020.5 |
| 20260904075003 | 65 | 114 | 1.7 | 7.0 | 0.00 | 0.00 | 0.00 | 92 | 1020.8 |
| 20260904074003 | 65 | 92 | 0.9 | 4.3 | 0.00 | 0.00 | 0.00 | 91 | 1020.6 |
| 20260904071004 | 65 | 89 | 1.7 | 4.3 | 0.00 | 0.00 | 0.00 | 90 | 1020.7 |
| 20260904070002 | 65 | 75 | 2.6 | 7.8 | 0.00 | 0.00 | 0.00 | 89 | 1021.0 |
| 20260904065004 | 65 | 88 | 1.7 | 6.1 | 0.00 | 0.00 | 0.00 | 89 | 1021.1 |
| 20260904064003 | 66 | 107 | 0.0 | 5.2 | 0.00 | 0.00 | 0.00 | 89 | 1021.0 |
| 20260904062004 | 65 | 96 | 1.7 | 6.1 | 0.00 | 0.00 | 0.00 | 90 | 1021.1 |
| 20260904061003 | 65 | 93 | 1.7 | 6.1 | 0.00 | 0.00 | 0.00 | 90 | 1021.3 |
| 20260904060002 | 65 | 51 | 2.6 | 7.8 | 0.00 | 0.00 | 0.00 | 91 | 1021.3 |
| 20260904055003 | 66 | 157 | 1.7 | 6.1 | 0.00 | 0.00 | 0.00 | 90 | 1021.2 |
| 20260904054003 | 66 | 73 | 2.6 | 5.2 | 0.00 | 0.00 | 0.00 | 90 | 1021.3 |
| 20260904053004 | 66 | 82 | 1.7 | 7.0 | 0.00 | 0.00 | 0.00 | 90 | 1021.4 |
| 20260904052003 | 66 | 113 | 1.7 | 5.2 | 0.00 | 0.00 | 0.00 | 89 | 1021.3 |
| 20260904051003 | 66 | 96 | 1.7 | 6.1 | 0.00 | 0.00 | 0.00 | 89 | 1021.5 |
| 20260904050003 | 66 | 98 | 1.7 | 4.3 | 0.00 | 0.00 | 0.00 | 91 | 1021.5 |
| 20260904045003 | 65 | 0 | 0.9 | 2.6 | 0.00 | 0.00 | 0.00 | 93 | 1021.3 |
| 20260904044002 | 65 | 123 | 0.0 | 1.7 | 0.00 | 0.00 | 0.00 | 93 | 1021.3 |
| 20260904043003 | 65 | 113 | 0.9 | 4.3 | 0.00 | 0.00 | 0.00 | 93 | 1021.4 |
| 20260904042004 | 65 | 341 | 0.9 | 4.3 | 0.00 | 0.00 | 0.00 | 92 | 1021.3 |
| 20260904041003 | 65 | 44 | 2.6 | 6.1 | 0.00 | 0.00 | 0.00 | 91 | 1021.4 |
| 20260904040003 | 66 | 347 | 0.0 | 5.2 | 0.00 | 0.00 | 0.00 | 89 | 1021.5 |
| 20260904035003 | 67 | 26 | 1.7 | 4.3 | 0.00 | 0.00 | 0.00 | 88 | 1021.4 |
| 20260904034003 | 67 | 15 | 2.6 | 5.2 | 0.00 | 0.00 | 0.00 | 88 | 1021.4 |
| 20260904033003 | 67 | 89 | 1.7 | 2.6 | 0.00 | 0.00 | 0.00 | 88 | 1021.2 |
| 20260904032003 | 67 | 7 | 1.7 | 2.6 | 0.00 | 0.00 | 0.00 | 88 | 1021.3 |
| 20260904031003 | 66 | 7 | 0.0 | 2.6 | 0.00 | 0.00 | 0.00 | 88 | 1021.2 |
| 20260904025004 | 66 | 243 | 0.9 | 4.3 | 0.00 | 0.00 | 0.00 | 90 | 1021.5 |
| 20260904024003 | 66 | 338 | 2.6 | 5.2 | 0.00 | 0.00 | 0.00 | 89 | 1021.2 |
| 20260904023003 | 66 | 356 | 2.6 | 7.8 | 0.00 | 0.00 | 0.00 | 88 | 1021.5 |
| 20260904022004 | 66 | 162 | 0.9 | 11.3 | 0.00 | 0.00 | 0.00 | 88 | 1021.4 |
| 20260904021005 | 65 | 129 | 2.6 | 17.4 | 0.00 | 0.00 | 0.00 | 89 | 1021.2 |
| 20260904020004 | 65 | 142 | 9.6 | 19.1 | 0.00 | 0.00 | 0.00 | 91 | 1021.4 |
| 20260904014003 | 64 | 141 | 9.6 | 30.4 | 0.00 | 0.00 | 0.00 | 95 | 1021.6 |
| 20260904012004 | 66 | 130 | 11.3 | 33.0 | 0.00 | 0.00 | 0.00 | 90 | 1021.3 |
| 20260904011003 | 65 | 135 | 9.6 | 25.2 | 0.00 | 0.00 | 0.00 | 91 | 1020.8 |
| 20260904010003 | 66 | 121 | 8.7 | 19.1 | 0.00 | 0.00 | 0.00 | 90 | 1020.6 |
| 20260904005005 | 67 | 147 | 7.8 | 15.6 | 0.00 | 0.00 | 0.00 | 87 | 1020.3 |
| 20260904004006 | 66 | 139 | 6.1 | 20.0 | 0.00 | 0.00 | 0.00 | 88 | 1020.1 |
| 20260904003005 | 65 | 147 | 9.6 | 26.9 | 0.00 | 0.00 | 0.00 | 89 | 1020.5 |
| 20260904002004 | 65 | 154 | 4.3 | 21.7 | 0.00 | 0.00 | 0.00 | 91 | 1020.3 |
| 20260904001003 | 68 | 164 | 7.0 | 20.9 | 0.00 | 0.00 | 0.00 | 91 | 1020.5 |
| 20260904000003 | 72 | 148 | 6.1 | 13.9 | 0.00 | 0.00 | 0.00 | 85 | 1020.3 |
| 20260903234006 | 73 | 140 | 4.3 | 10.4 | 0.00 | 0.00 | 0.00 | 81 | 1019.7 |
| 20260903233003 | 74 | 176 | 4.3 | 11.3 | 0.00 | 0.00 | 0.00 | 76 | 1019.6 |